2022/05/25 23:30:35+0000,-28.84,-44.13,-32.26,-49.02,-54.13,-54.97
2022/05/25 23:31:37+0000,-27.97,-42.60,-32.71,-48.20,-54.48,-55.35
2022/05/25 23:32:29+0000,-30.25,-45.82,-32.52,-47.93,-53.73,-54.94
2022/05/25 23:33:21+0000,-30.07,-45.40,-33.03,-48.31,-53.87,-54.98
2022/05/25 23:34:13+0000,-30.75,-44.73,-32.94,-48.40,-53.91,-55.25
2022/05/25 23:35:05+0000,-29.64,-43.23,-32.59,-48.63,-54.25,-55.92
2022/05/25 23:35:57+0000,-29.43,-44.93,-32.30,-48.51,-54.05,-55.57
2022/05/25 23:36:49+0000,-29.22,-44.36,-32.90,-48.63,-54.35,-55.38
2022/05/25 23:37:41+0000,-30.50,-43.15,-32.52,-49.29,-54.89,-55.18
2022/05/25 23:38:33+0000,-30.70,-44.21,-32.44,-48.27,-53.82,-55.73
2022/05/25 23:39:25+0000,-30.34,-43.69,-32.91,-48.21,-54.36,-55.41
2022/05/25 23:40:17+0000,-29.03,-44.79,-32.55,-48.39,-53.92,-55.07
2022/05/25 23:41:22+0000,-30.88,-43.69,-32.56,-48.28,-54.06,-55.30
2022/05/25 23:42:14+0000,-31.05,-44.99,-32.06,-48.88,-53.29,-55.49
2022/05/25 23:43:06+0000,-31.41,-44.45,-32.86,-48.20,-54.02,-55.70
2022/05/25 23:43:58+0000,-29.75,-44.57,-32.58,-48.33,-53.94,-55.17
2022/05/25 23:44:50+0000,-29.87,-43.73,-32.69,-48.70,-53.78,-54.95
2022/05/25 23:45:42+0000,-30.84,-44.55,-32.48,-47.62,-54.10,-55.62
2022/05/25 23:46:34+0000,-30.63,-43.75,-33.29,-48.53,-53.77,-55.43
2022/05/25 23:47:26+0000,-30.49,-44.90,-32.44,-48.71,-54.09,-54.83
2022/05/25 23:48:18+0000,-29.39,-43.61,-32.53,-48.18,-53.13,-54.70
2022/05/25 23:49:10+0000,-28.86,-42.09,-33.53,-47.33,-53.40,-54.40
2022/05/25 23:50:02+0000,-30.38,-44.10,-32.37,-48.19,-53.65,-54.38
2022/05/25 23:51:11+0000,-30.08,-43.60,-32.73,-48.46,-53.87,-55.07
2022/05/25 23:52:03+0000,-31.05,-44.53,-32.22,-48.20,-53.48,-54.57
2022/05/25 23:52:55+0000,-30.41,-45.01,-32.55,-48.08,-54.29,-54.94
2022/05/25 23:53:47+0000,-29.99,-45.59,-32.82,-48.03,-53.03,-54.46
2022/05/25 23:54:39+0000,-30.56,-43.59,-32.65,-47.85,-53.51,-54.65
2022/05/25 23:55:31+0000,-29.79,-43.81,-32.95,-47.76,-53.34,-54.36
2022/05/25 23:56:23+0000,-30.07,-44.55,-32.48,-47.44,-53.58,-55.42
2022/05/25 23:57:15+0000,-30.98,-45.18,-32.46,-48.24,-53.50,-54.55
2022/05/25 23:58:07+0000,-30.02,-45.40,-32.16,-47.48,-53.74,-55.20
2022/05/25 23:59:00+0000,-30.82,-45.87,-32.24,-48.68,-53.55,-54.39
2022/05/25 23:59:52+0000,-30.90,-45.75,-32.44,-48.08,-52.65,-54.75
2022/05/26 00:00:47+0000,-30.07,-45.00,-32.69,-47.67,-53.09,-54.93
2022/05/26 00:01:57+0000,-30.83,-45.45,-32.45,-48.02,-53.38,-54.87
2022/05/26 00:02:49+0000,-31.06,-44.39,-32.47,-48.01,-52.64,-55.48
2022/05/26 00:03:41+0000,-30.25,-44.93,-31.95,-48.26,-52.81,-54.31
2022/05/26 00:04:34+0000,-30.54,-45.02,-32.07,-47.82,-53.22,-54.37
2022/05/26 00:05:26+0000,-29.51,-45.92,-32.16,-48.00,-53.61,-54.96
2022/05/26 00:06:18+0000,-28.92,-45.70,-32.15,-48.55,-52.65,-54.87
2022/05/26 00:07:10+0000,-30.98,-44.14,-32.00,-48.48,-53.30,-55.19
2022/05/26 00:08:02+0000,-30.43,-45.13,-32.69,-47.68,-53.09,-54.63
2022/05/26 00:08:54+0000,-30.67,-42.27,-32.46,-48.11,-53.19,-54.43
2022/05/26 00:09:46+0000,-30.29,-44.56,-32.57,-47.26,-52.03,-54.49
2022/05/26 00:10:38+0000,-30.26,-45.17,-32.61,-47.94,-53.01,-54.62
2022/05/26 00:11:37+0000,-30.31,-45.19,-32.75,-47.15,-53.85,-54.98
2022/05/26 00:12:29+0000,-29.85,-44.45,-32.07,-47.86,-53.83,-55.11
2022/05/26 00:13:21+0000,-30.73,-45.28,-32.55,-47.81,-53.32,-55.05
2022/05/26 00:14:13+0000,-31.26,-44.78,-32.33,-48.03,-53.22,-54.59
2022/05/26 00:15:05+0000,-28.68,-45.02,-32.82,-48.53,-53.15,-55.15
2022/05/26 00:15:57+0000,-30.74,-44.44,-32.01,-48.57,-53.46,-54.95
2022/05/26 00:16:49+0000,-30.82,-43.92,-32.68,-48.07,-53.33,-54.38
2022/05/26 00:17:41+0000,-30.43,-46.07,-32.22,-47.86,-52.52,-54.44
2022/05/26 00:18:33+0000,-30.37,-45.45,-31.97,-48.41,-53.60,-54.61
2022/05/26 00:19:25+0000,-29.88,-45.67,-32.40,-47.62,-53.16,-54.66
2022/05/26 00:20:18+0000,-28.97,-45.80,-32.64,-48.43,-52.45,-55.10
2022/05/26 00:21:17+0000,-29.80,-45.37,-32.55,-47.85,-52.42,-54.54
2022/05/26 00:22:09+0000,-30.28,-43.14,-32.05,-48.07,-52.35,-54.53
2022/05/26 00:23:01+0000,-30.17,-43.63,-32.80,-47.13,-53.34,-54.62
2022/05/26 00:23:53+0000,-30.53,-45.16,-32.48,-47.64,-52.55,-55.04
2022/05/26 00:24:45+0000,-30.35,-44.05,-32.15,-47.44,-52.94,-54.58
2022/05/26 00:25:37+0000,-27.41,-44.99,-32.48,-48.02,-53.51,-55.25
2022/05/26 00:26:29+0000,-30.78,-44.20,-31.95,-47.21,-52.84,-54.68
2022/05/26 00:27:21+0000,-29.43,-44.69,-32.67,-47.37,-52.58,-54.60
2022/05/26 00:28:13+0000,-30.28,-43.84,-32.75,-46.98,-52.29,-54.77
2022/05/26 00:29:05+0000,-29.39,-44.41,-32.94,-48.00,-53.04,-54.78
2022/05/26 00:29:57+0000,-29.69,-46.20,-31.99,-46.66,-52.48,-54.92
2022/05/26 00:30:49+0000,-30.40,-43.18,-32.40,-48.42,-52.49,-54.91
2022/05/26 00:31:50+0000,-30.22,-45.36,-33.03,-46.58,-51.62,-55.05
2022/05/26 00:32:42+0000,-29.89,-44.02,-32.26,-47.97,-52.07,-54.95
2022/05/26 00:33:34+0000,-30.08,-44.99,-32.70,-48.48,-52.11,-54.46
2022/05/26 00:34:27+0000,-29.39,-44.06,-32.74,-47.52,-52.94,-55.01
2022/05/26 00:35:19+0000,-30.70,-43.56,-32.36,-48.88,-51.73,-54.26
2022/05/26 00:36:11+0000,-29.37,-43.42,-32.79,-47.18,-53.61,-55.00
2022/05/26 00:37:03+0000,-30.61,-43.98,-32.76,-47.76,-53.20,-55.27
2022/05/26 00:37:55+0000,-29.27,-44.38,-32.70,-47.01,-53.56,-54.37
2022/05/26 00:38:47+0000,-29.73,-44.29,-32.68,-47.73,-52.62,-54.84
2022/05/26 00:39:39+0000,-30.38,-44.23,-32.16,-48.34,-53.26,-53.21
2022/05/26 00:40:31+0000,-30.57,-45.21,-32.92,-47.57,-53.85,-55.10
2022/05/26 00:41:32+0000,-30.41,-44.97,-33.25,-47.21,-53.63,-55.13
2022/05/26 00:42:24+0000,-30.51,-45.22,-32.83,-46.68,-52.55,-54.63
2022/05/26 00:43:16+0000,-30.46,-44.86,-32.56,-47.46,-53.22,-55.07
2022/05/26 00:44:08+0000,-30.97,-43.04,-32.56,-46.56,-54.18,-54.81
2022/05/26 00:45:00+0000,-29.73,-41.21,-32.16,-47.41,-53.31,-54.62
2022/05/26 00:45:52+0000,-30.47,-43.54,-32.59,-47.24,-52.27,-54.80
2022/05/26 00:46:44+0000,-30.09,-44.78,-33.15,-47.37,-53.82,-54.57
2022/05/26 00:47:36+0000,-30.52,-45.24,-32.67,-47.97,-52.74,-54.16
2022/05/26 00:48:28+0000,-30.12,-44.13,-32.44,-46.92,-54.40,-55.03
2022/05/26 00:49:20+0000,-30.89,-44.29,-32.75,-47.42,-53.44,-54.83
2022/05/26 00:50:12+0000,-28.83,-42.67,-32.74,-47.82,-53.10,-54.68
2022/05/26 00:51:12+0000,-29.63,-45.10,-32.62,-47.64,-53.93,-55.14
2022/05/26 00:52:04+0000,-31.01,-45.67,-32.50,-47.84,-53.65,-54.60
2022/05/26 00:52:56+0000,-30.22,-45.03,-33.40,-46.75,-53.96,-54.77
2022/05/26 00:53:49+0000,-31.17,-44.64,-32.74,-47.78,-52.92,-54.96
2022/05/26 00:54:41+0000,-29.43,-45.01,-32.52,-47.20,-54.03,-54.78
2022/05/26 00:55:33+0000,-30.23,-44.94,-32.61,-46.43,-53.75,-54.76
2022/05/26 00:56:25+0000,-30.20,-43.68,-33.32,-46.68,-52.83,-55.13
2022/05/26 00:57:17+0000,-30.75,-43.68,-32.34,-45.77,-52.60,-54.66
2022/05/26 00:58:09+0000,-30.10,-43.79,-32.72,-46.13,-53.31,-54.59
2022/05/26 00:59:01+0000,-30.37,-44.20,-32.27,-47.81,-53.99,-54.59
2022/05/26 00:59:53+0000,-29.73,-43.66,-32.68,-48.17,-52.28,-54.73
2022/05/26 01:00:45+0000,-30.32,-43.54,-32.85,-46.30,-52.94,-54.87
2022/05/26 01:01:47+0000,-29.51,-44.39,-32.60,-48.09,-51.75,-54.71
2022/05/26 01:02:39+0000,-30.62,-44.02,-32.98,-47.61,-53.99,-54.70
2022/05/26 01:03:31+0000,-31.00,-43.85,-32.79,-47.03,-52.43,-55.05
2022/05/26 01:04:23+0000,-31.30,-44.79,-32.86,-47.77,-51.82,-54.91
2022/05/26 01:05:15+0000,-28.87,-41.19,-32.67,-46.91,-52.11,-54.61
2022/05/26 01:06:07+0000,-28.32,-41.69,-32.65,-47.34,-52.68,-54.84
2022/05/26 01:06:59+0000,-30.94,-44.45,-32.55,-47.07,-52.51,-54.36
2022/05/26 01:07:51+0000,-30.47,-43.05,-32.68,-47.70,-52.61,-54.91
2022/05/26 01:08:43+0000,-30.47,-43.70,-32.71,-47.43,-51.26,-54.59
2022/05/26 01:09:35+0000,-31.37,-43.41,-32.63,-48.17,-52.55,-55.40
2022/05/26 01:10:27+0000,-29.67,-43.60,-32.50,-47.68,-51.66,-54.67
2022/05/26 01:11:29+0000,-30.57,-43.89,-32.86,-48.00,-53.20,-54.70
2022/05/26 01:12:21+0000,-30.98,-44.18,-32.91,-47.89,-51.79,-55.54
2022/05/26 01:13:13+0000,-30.62,-42.62,-32.70,-47.72,-52.31,-55.10
2022/05/26 01:14:05+0000,-31.32,-42.84,-32.52,-48.86,-53.34,-55.43
2022/05/26 01:14:57+0000,-31.36,-43.93,-33.16,-48.58,-53.60,-54.34
2022/05/26 01:15:49+0000,-30.91,-43.80,-33.01,-48.39,-51.75,-55.24
2022/05/26 01:16:41+0000,-30.01,-42.85,-33.07,-47.88,-52.18,-55.25
2022/05/26 01:17:33+0000,-30.15,-44.78,-32.75,-48.46,-53.95,-54.62
2022/05/26 01:18:25+0000,-30.84,-44.67,-33.34,-47.67,-54.27,-55.11
2022/05/26 01:19:17+0000,-30.64,-44.67,-32.86,-48.47,-52.70,-55.85
2022/05/26 01:20:09+0000,-30.96,-43.79,-32.70,-47.65,-54.21,-54.88
2022/05/26 01:21:08+0000,-30.28,-45.17,-32.40,-47.29,-50.85,-54.96
2022/05/26 01:22:01+0000,-29.42,-43.58,-32.70,-48.49,-51.16,-54.54
2022/05/26 01:22:53+0000,-30.47,-44.72,-32.62,-46.63,-52.73,-54.71
2022/05/26 01:23:45+0000,-29.16,-44.42,-32.80,-47.70,-52.72,-55.24
2022/05/26 01:24:37+0000,-30.86,-44.85,-33.13,-47.31,-50.75,-54.87
2022/05/26 01:25:29+0000,-30.16,-43.38,-32.68,-47.69,-51.66,-55.08
2022/05/26 01:26:21+0000,-31.00,-43.57,-32.81,-46.45,-53.30,-55.15
2022/05/26 01:27:13+0000,-31.49,-41.10,-32.46,-47.38,-53.17,-54.80
2022/05/26 01:28:05+0000,-32.29,-42.71,-32.24,-48.66,-52.04,-54.76
2022/05/26 01:28:57+0000,-33.45,-43.49,-32.85,-47.66,-52.35,-55.41
2022/05/26 01:29:49+0000,-33.41,-43.61,-32.89,-48.56,-52.19,-54.93
2022/05/26 01:30:41+0000,-31.78,-42.31,-33.09,-48.17,-53.41,-55.25
2022/05/26 01:31:40+0000,-32.27,-43.68,-32.69,-46.30,-53.38,-55.10
2022/05/26 01:32:32+0000,-32.24,-43.60,-32.72,-47.19,-52.19,-54.84
2022/05/26 01:33:24+0000,-32.32,-42.24,-32.88,-46.94,-53.04,-54.87
2022/05/26 01:34:16+0000,-32.06,-42.99,-32.69,-45.43,-52.89,-55.07
2022/05/26 01:35:08+0000,-32.13,-42.84,-33.00,-47.09,-52.25,-55.13
2022/05/26 01:36:00+0000,-32.74,-41.60,-32.92,-47.14,-51.37,-54.92
2022/05/26 01:36:52+0000,-32.69,-42.22,-33.07,-46.89,-52.45,-54.52
2022/05/26 01:37:44+0000,-30.54,-41.36,-33.79,-46.58,-52.96,-55.22
2022/05/26 01:38:36+0000,-31.54,-41.88,-33.42,-45.26,-52.31,-54.99
2022/05/26 01:39:28+0000,-32.12,-42.12,-33.60,-47.33,-52.71,-54.81
2022/05/26 01:40:20+0000,-32.06,-42.68,-33.53,-48.85,-53.74,-55.48
2022/05/26 01:41:22+0000,-32.44,-42.32,-33.85,-46.94,-53.41,-54.70
2022/05/26 01:42:14+0000,-32.97,-42.46,-33.39,-46.01,-53.11,-54.87
2022/05/26 01:43:06+0000,-32.28,-42.61,-33.60,-48.69,-51.65,-55.09
2022/05/26 01:43:58+0000,-32.05,-40.55,-32.94,-47.27,-52.40,-55.93
2022/05/26 01:44:50+0000,-32.62,-41.28,-33.08,-48.40,-53.05,-54.74
2022/05/26 01:45:42+0000,-31.93,-41.59,-33.19,-46.80,-53.47,-54.84
2022/05/26 01:46:34+0000,-32.05,-41.99,-33.49,-48.57,-51.71,-55.01
2022/05/26 01:47:26+0000,-33.02,-41.50,-32.99,-46.43,-53.05,-54.97
2022/05/26 01:48:18+0000,-32.77,-40.68,-33.88,-44.53,-52.34,-54.28
2022/05/26 01:49:10+0000,-32.40,-42.96,-33.50,-45.22,-51.61,-54.69
2022/05/26 01:50:02+0000,-32.25,-42.98,-33.55,-47.64,-52.54,-54.55
2022/05/26 01:51:03+0000,-32.36,-42.04,-33.25,-46.84,-52.16,-54.65
2022/05/26 01:51:55+0000,-32.87,-41.06,-33.62,-47.81,-53.38,-55.39
2022/05/26 01:52:47+0000,-31.84,-42.38,-32.62,-45.00,-52.70,-55.05
2022/05/26 01:53:39+0000,-32.31,-42.64,-33.18,-45.62,-53.28,-54.82
2022/05/26 01:54:31+0000,-33.03,-40.60,-33.10,-48.10,-53.48,-55.01
2022/05/26 01:55:23+0000,-33.28,-42.10,-32.48,-48.18,-51.38,-54.78
2022/05/26 01:56:15+0000,-31.61,-39.76,-32.27,-46.48,-50.86,-54.01
2022/05/26 01:57:07+0000,-32.63,-42.82,-33.07,-45.36,-53.21,-54.52
2022/05/26 01:58:00+0000,-33.60,-42.22,-32.49,-47.20,-52.88,-55.16
2022/05/26 01:58:52+0000,-33.45,-42.74,-32.83,-48.35,-51.65,-54.71
2022/05/26 01:59:44+0000,-32.84,-42.81,-33.09,-46.38,-52.10,-54.39
2022/05/26 02:00:36+0000,-33.07,-42.66,-32.54,-48.52,-52.81,-54.65
2022/05/26 02:01:37+0000,-31.81,-42.07,-32.52,-47.09,-53.40,-55.29
2022/05/26 02:02:29+0000,-33.69,-42.95,-32.73,-47.55,-53.21,-53.91
2022/05/26 02:03:21+0000,-33.52,-40.29,-32.23,-48.68,-51.43,-54.39
2022/05/26 02:04:13+0000,-33.27,-42.69,-32.47,-45.51,-50.52,-55.32
2022/05/26 02:05:05+0000,-32.63,-41.27,-32.72,-46.30,-52.85,-54.62
2022/05/26 02:05:57+0000,-32.92,-43.72,-32.83,-46.81,-52.99,-55.27
2022/05/26 02:06:49+0000,-32.72,-42.28,-32.85,-48.16,-51.03,-54.53
2022/05/26 02:07:41+0000,-33.21,-42.94,-32.85,-45.78,-50.17,-54.57
2022/05/26 02:08:33+0000,-33.28,-42.25,-32.88,-48.85,-53.26,-54.82
2022/05/26 02:09:25+0000,-32.09,-42.58,-32.75,-47.27,-53.41,-54.79
2022/05/26 02:10:18+0000,-32.36,-42.98,-33.44,-47.97,-53.31,-54.37
2022/05/26 02:11:19+0000,-32.78,-42.19,-33.31,-48.08,-53.21,-55.37
2022/05/26 02:12:11+0000,-32.96,-41.64,-32.59,-46.55,-53.35,-54.95
2022/05/26 02:13:03+0000,-33.15,-42.51,-33.17,-48.28,-52.83,-54.63
2022/05/26 02:13:55+0000,-31.96,-41.94,-32.91,-47.47,-53.10,-55.16
2022/05/26 02:14:47+0000,-32.91,-42.29,-33.07,-46.13,-53.05,-54.48
2022/05/26 02:15:39+0000,-31.78,-43.04,-32.83,-46.65,-53.68,-54.52
2022/05/26 02:16:31+0000,-32.89,-42.12,-32.22,-47.25,-52.63,-54.59
2022/05/26 02:17:23+0000,-31.52,-42.80,-32.70,-47.11,-52.54,-55.15
2022/05/26 02:18:15+0000,-31.88,-42.62,-32.66,-46.94,-52.93,-54.41
2022/05/26 02:19:07+0000,-33.49,-42.12,-32.73,-46.44,-51.36,-55.10
2022/05/26 02:19:59+0000,-33.39,-39.75,-32.09,-47.03,-52.50,-54.56
2022/05/26 02:20:51+0000,-28.34,-39.96,-32.68,-47.25,-53.21,-54.78
2022/05/26 02:21:53+0000,-31.72,-43.17,-32.67,-48.21,-53.24,-55.10
2022/05/26 02:22:45+0000,-32.37,-42.95,-32.96,-47.57,-52.97,-54.67
2022/05/26 02:23:37+0000,-32.84,-41.71,-32.78,-45.79,-52.74,-55.01
2022/05/26 02:24:29+0000,-33.18,-42.84,-32.23,-46.41,-52.08,-54.82
2022/05/26 02:25:21+0000,-30.92,-43.42,-32.28,-47.82,-51.20,-54.70
2022/05/26 02:26:13+0000,-32.21,-42.92,-33.44,-42.98,-52.42,-54.70
2022/05/26 02:27:05+0000,-32.91,-42.66,-32.73,-46.63,-53.46,-55.00
2022/05/26 02:27:57+0000,-31.02,-42.13,-32.98,-48.00,-52.31,-55.09
2022/05/26 02:28:49+0000,-32.35,-42.06,-32.20,-48.83,-51.43,-54.93
2022/05/26 02:29:42+0000,-32.49,-43.09,-32.83,-46.48,-52.29,-54.65
2022/05/26 02:30:34+0000,-32.56,-42.40,-32.71,-48.02,-52.78,-54.24
2022/05/26 02:31:34+0000,-32.50,-41.81,-32.30,-48.86,-52.85,-54.07
2022/05/26 02:32:26+0000,-31.48,-42.67,-32.49,-47.10,-51.73,-53.13
2022/05/26 02:33:18+0000,-32.76,-40.95,-33.06,-47.48,-51.27,-53.33
2022/05/26 02:34:11+0000,-31.91,-41.64,-32.23,-46.69,-51.85,-53.35
2022/05/26 02:35:03+0000,-33.54,-42.54,-32.39,-46.75,-51.67,-53.23
2022/05/26 02:35:55+0000,-32.84,-42.52,-32.66,-46.51,-52.46,-53.22
2022/05/26 02:36:47+0000,-32.64,-40.72,-32.29,-46.87,-50.28,-53.85
2022/05/26 02:37:39+0000,-32.05,-42.19,-32.57,-46.75,-51.22,-53.36
2022/05/26 02:38:31+0000,-32.42,-41.54,-32.91,-47.19,-51.16,-53.43
2022/05/26 02:39:23+0000,-32.36,-42.73,-32.86,-46.63,-50.22,-52.52
2022/05/26 02:40:15+0000,-31.14,-42.60,-32.33,-47.33,-49.88,-53.89
2022/05/26 02:41:16+0000,-32.75,-41.94,-32.85,-46.58,-50.43,-53.28
2022/05/26 02:42:08+0000,-31.98,-41.86,-33.88,-46.66,-50.54,-52.97
2022/05/26 02:43:00+0000,-32.67,-42.72,-33.20,-46.89,-49.73,-53.15
2022/05/26 02:43:52+0000,-32.29,-41.44,-33.23,-47.55,-51.18,-53.72
2022/05/26 02:44:44+0000,-32.50,-42.53,-33.84,-47.09,-50.59,-52.98
2022/05/26 02:45:36+0000,-32.83,-42.33,-33.13,-46.82,-50.57,-53.00
2022/05/26 02:46:28+0000,-32.55,-41.44,-33.23,-47.47,-49.16,-53.28
2022/05/26 02:47:20+0000,-33.55,-41.99,-32.76,-48.08,-50.19,-53.44
2022/05/26 02:48:12+0000,-32.10,-42.64,-32.62,-46.47,-52.34,-52.79
2022/05/26 02:49:04+0000,-32.42,-41.40,-33.14,-48.29,-51.49,-53.35
2022/05/26 02:49:56+0000,-31.31,-42.64,-33.04,-47.00,-52.74,-53.39
2022/05/26 02:50:48+0000,-32.47,-41.41,-33.33,-46.99,-50.81,-53.37
2022/05/26 02:51:47+0000,-32.44,-41.89,-33.22,-47.50,-51.24,-53.32
2022/05/26 02:52:39+0000,-31.90,-39.58,-32.71,-46.47,-49.73,-53.12
2022/05/26 02:53:31+0000,-32.06,-42.24,-33.36,-47.22,-52.34,-53.41
2022/05/26 02:54:23+0000,-31.38,-42.22,-32.82,-46.94,-50.70,-53.19
2022/05/26 02:55:16+0000,-33.25,-42.37,-33.53,-46.81,-50.08,-53.36
2022/05/26 02:56:08+0000,-33.07,-42.28,-33.20,-46.78,-52.16,-52.98
2022/05/26 02:57:00+0000,-30.87,-41.54,-33.77,-46.04,-51.78,-53.36
2022/05/26 02:57:52+0000,-33.27,-40.23,-34.03,-46.91,-49.68,-53.28
2022/05/26 02:58:44+0000,-31.91,-42.10,-33.53,-46.42,-50.60,-52.80
2022/05/26 02:59:36+0000,-32.33,-41.34,-33.22,-47.36,-52.07,-52.57
2022/05/26 03:00:28+0000,-32.60,-41.49,-33.45,-46.97,-51.91,-52.93
2022/05/26 03:01:29+0000,-31.90,-40.64,-32.93,-46.03,-52.04,-53.14
2022/05/26 03:02:21+0000,-31.05,-41.16,-33.34,-46.10,-51.44,-53.10
2022/05/26 03:03:13+0000,-32.26,-41.50,-33.67,-45.78,-50.31,-53.28
2022/05/26 03:04:05+0000,-32.07,-41.39,-33.41,-46.00,-52.02,-53.22
2022/05/26 03:04:57+0000,-32.53,-41.53,-33.98,-46.32,-52.18,-52.96
2022/05/26 03:05:49+0000,-32.39,-42.13,-33.16,-47.23,-50.05,-53.14
2022/05/26 03:06:41+0000,-31.81,-40.75,-33.25,-45.61,-49.29,-52.72
2022/05/26 03:07:33+0000,-31.84,-41.76,-33.56,-46.90,-51.23,-53.22
2022/05/26 03:08:25+0000,-31.35,-41.75,-33.37,-46.28,-52.38,-53.31
2022/05/26 03:09:17+0000,-31.69,-39.40,-33.52,-47.18,-49.11,-53.13
2022/05/26 03:10:09+0000,-32.30,-39.69,-33.68,-46.14,-52.03,-53.74
2022/05/26 03:11:11+0000,-33.18,-39.72,-33.51,-45.57,-51.82,-53.29
2022/05/26 03:12:03+0000,-31.59,-41.51,-33.85,-46.82,-52.68,-53.85
2022/05/26 03:12:55+0000,-32.00,-41.04,-33.19,-47.00,-52.11,-53.10
2022/05/26 03:13:47+0000,-32.41,-40.91,-33.19,-46.45,-50.42,-53.61
2022/05/26 03:14:39+0000,-31.94,-40.16,-33.84,-46.17,-52.83,-53.91
2022/05/26 03:15:31+0000,-32.60,-40.86,-33.49,-46.34,-52.27,-53.34
2022/05/26 03:16:23+0000,-32.19,-40.88,-33.70,-46.47,-50.06,-53.40
2022/05/26 03:17:15+0000,-31.85,-42.27,-33.61,-46.18,-51.08,-53.95
2022/05/26 03:18:07+0000,-32.42,-42.76,-33.19,-46.65,-53.11,-53.56
2022/05/26 03:18:59+0000,-32.62,-42.68,-32.96,-46.77,-51.42,-52.46
2022/05/26 03:19:51+0000,-32.70,-42.41,-33.16,-46.15,-49.53,-52.28
2022/05/26 03:20:43+0000,-31.91,-39.71,-33.34,-45.49,-49.73,-52.42
2022/05/26 03:21:42+0000,-31.17,-41.71,-33.68,-46.18,-48.75,-53.16
2022/05/26 03:22:34+0000,-30.95,-40.30,-33.35,-46.69,-51.89,-52.62
2022/05/26 03:23:26+0000,-31.20,-41.60,-33.10,-46.81,-51.90,-52.85
2022/05/26 03:24:18+0000,-31.39,-40.84,-33.24,-47.06,-49.90,-52.77
2022/05/26 03:25:10+0000,-32.98,-41.11,-32.98,-45.86,-51.94,-52.65
2022/05/26 03:26:02+0000,-32.62,-40.83,-33.21,-45.73,-51.90,-52.83
2022/05/26 03:26:54+0000,-31.20,-42.10,-33.41,-46.49,-50.56,-52.53
2022/05/26 03:27:46+0000,-32.29,-41.19,-32.92,-45.85,-48.69,-52.94
2022/05/26 03:28:38+0000,-32.14,-41.83,-33.59,-45.83,-51.26,-52.48
2022/05/26 03:29:30+0000,-32.76,-42.40,-32.84,-46.09,-51.87,-52.54
2022/05/26 03:30:22+0000,-32.82,-41.39,-33.35,-46.66,-49.28,-52.93
2022/05/26 03:31:23+0000,-32.58,-41.84,-32.81,-46.69,-48.20,-52.40
2022/05/26 03:32:15+0000,-32.06,-40.68,-33.05,-46.07,-48.92,-52.87
2022/05/26 03:33:07+0000,-32.67,-40.80,-33.59,-46.88,-52.09,-52.21
2022/05/26 03:33:59+0000,-33.58,-41.98,-33.22,-46.24,-51.95,-52.79
2022/05/26 03:34:51+0000,-32.82,-42.34,-33.08,-46.26,-49.72,-53.01
2022/05/26 03:35:43+0000,-33.57,-41.53,-33.91,-46.04,-50.60,-52.35
2022/05/26 03:36:35+0000,-30.68,-41.37,-32.89,-48.07,-51.50,-52.93
2022/05/26 03:37:27+0000,-32.57,-42.82,-33.03,-45.33,-51.26,-53.03
2022/05/26 03:38:19+0000,-32.45,-41.51,-32.92,-47.54,-49.21,-52.82
2022/05/26 03:39:11+0000,-32.25,-42.61,-32.75,-46.89,-51.76,-53.02
2022/05/26 03:40:03+0000,-32.00,-41.67,-33.30,-48.11,-50.44,-52.55
2022/05/26 03:41:03+0000,-32.77,-41.10,-32.75,-47.89,-51.34,-52.86
2022/05/26 03:41:55+0000,-32.54,-42.04,-32.92,-47.43,-52.01,-52.69
2022/05/26 03:42:47+0000,-32.46,-42.75,-32.99,-46.16,-46.97,-52.55
2022/05/26 03:43:39+0000,-32.66,-39.68,-32.82,-46.66,-51.84,-53.22
2022/05/26 03:44:31+0000,-32.42,-42.17,-32.60,-47.45,-51.44,-52.88
2022/05/26 03:45:23+0000,-32.47,-42.18,-32.63,-47.41,-48.65,-52.62
2022/05/26 03:46:15+0000,-32.57,-41.94,-32.91,-45.37,-48.73,-53.38
2022/05/26 03:47:07+0000,-31.97,-42.52,-32.40,-46.36,-52.07,-52.87
2022/05/26 03:47:59+0000,-31.46,-42.23,-33.32,-47.78,-51.99,-52.59
2022/05/26 03:48:51+0000,-32.88,-42.00,-32.51,-47.42,-50.46,-53.16
2022/05/26 03:49:44+0000,-32.41,-40.73,-32.96,-46.58,-48.48,-52.70
2022/05/26 03:50:36+0000,-33.64,-41.55,-32.70,-49.13,-51.24,-53.18
2022/05/26 03:51:36+0000,-31.20,-40.00,-33.10,-48.31,-51.82,-52.28
2022/05/26 03:52:28+0000,-31.57,-40.94,-32.87,-47.63,-52.06,-52.84
2022/05/26 03:53:20+0000,-32.13,-41.63,-32.45,-48.78,-48.97,-52.99
2022/05/26 03:54:12+0000,-32.14,-41.36,-32.56,-46.66,-51.77,-52.99
2022/05/26 03:55:04+0000,-32.43,-40.32,-33.43,-48.55,-51.42,-52.71
2022/05/26 03:55:56+0000,-32.10,-40.60,-32.79,-47.25,-50.88,-53.40
2022/05/26 03:56:48+0000,-31.97,-41.11,-32.77,-46.76,-49.73,-53.00
2022/05/26 03:57:40+0000,-32.07,-40.14,-32.89,-45.87,-50.77,-53.39
2022/05/26 03:58:32+0000,-32.80,-40.26,-32.87,-47.29,-50.61,-53.60
2022/05/26 03:59:24+0000,-31.37,-40.94,-32.96,-45.69,-49.22,-52.72
2022/05/26 04:00:16+0000,-31.85,-40.89,-32.87,-47.15,-48.89,-53.52
2022/05/26 04:01:17+0000,-31.84,-41.14,-32.95,-48.61,-49.11,-53.60
2022/05/26 04:02:09+0000,-30.66,-40.87,-32.94,-46.05,-50.86,-53.14
2022/05/26 04:03:01+0000,-30.44,-41.71,-32.84,-48.28,-50.82,-53.90
2022/05/26 04:03:53+0000,-31.94,-39.66,-33.64,-47.69,-50.39,-53.96
2022/05/26 04:04:46+0000,-30.15,-40.90,-32.67,-46.42,-49.70,-52.75
2022/05/26 04:05:38+0000,-31.95,-40.68,-32.54,-45.79,-50.93,-53.20
2022/05/26 04:06:30+0000,-31.55,-39.17,-32.88,-47.20,-50.92,-53.07
2022/05/26 04:07:22+0000,-31.83,-39.57,-33.43,-48.13,-50.35,-53.19
2022/05/26 04:08:14+0000,-32.00,-41.49,-32.63,-47.01,-49.18,-52.96
2022/05/26 04:09:06+0000,-32.44,-41.37,-33.25,-45.59,-51.21,-53.42
2022/05/26 04:09:58+0000,-31.19,-41.35,-32.79,-48.51,-50.84,-52.90
2022/05/26 04:10:50+0000,-31.90,-40.22,-32.82,-48.40,-50.72,-52.68
2022/05/26 04:11:50+0000,-32.80,-41.30,-33.32,-48.49,-49.81,-52.58
2022/05/26 04:12:42+0000,-32.18,-38.92,-32.84,-47.22,-49.27,-53.25
2022/05/26 04:13:34+0000,-31.57,-39.90,-32.53,-46.75,-50.82,-53.27
2022/05/26 04:14:26+0000,-32.47,-40.58,-32.66,-47.47,-50.93,-52.91
2022/05/26 04:15:19+0000,-32.38,-40.56,-32.85,-48.91,-49.83,-53.48
2022/05/26 04:16:11+0000,-31.51,-40.48,-33.00,-46.26,-51.57,-53.06
2022/05/26 04:17:03+0000,-32.03,-40.60,-32.79,-48.92,-50.93,-53.03
2022/05/26 04:17:55+0000,-30.91,-40.81,-32.95,-47.74,-51.07,-52.79
2022/05/26 04:18:47+0000,-33.04,-41.37,-32.66,-46.34,-50.79,-52.86
2022/05/26 04:19:39+0000,-30.63,-39.25,-32.73,-43.69,-51.57,-53.16
2022/05/26 04:20:31+0000,-32.60,-40.40,-32.42,-47.90,-49.89,-53.68
2022/05/26 04:21:31+0000,-32.67,-40.64,-32.61,-47.75,-50.93,-52.50
2022/05/26 04:22:24+0000,-31.69,-40.04,-33.12,-47.69,-49.81,-53.22
2022/05/26 04:23:16+0000,-33.02,-39.83,-33.23,-44.82,-50.90,-52.87
2022/05/26 04:24:08+0000,-31.14,-40.05,-32.78,-43.70,-50.66,-53.26
2022/05/26 04:25:00+0000,-31.86,-40.71,-33.36,-48.02,-50.95,-53.83
2022/05/26 04:25:52+0000,-33.20,-40.70,-33.19,-47.67,-50.30,-53.60
2022/05/26 04:26:44+0000,-31.87,-38.72,-32.88,-44.73,-50.28,-53.31
2022/05/26 04:27:36+0000,-31.90,-40.64,-32.91,-44.80,-51.00,-53.22
2022/05/26 04:28:28+0000,-31.86,-40.43,-32.80,-48.30,-50.46,-53.08
2022/05/26 04:29:20+0000,-31.35,-38.47,-32.68,-48.81,-50.35,-53.21
2022/05/26 04:30:12+0000,-32.25,-39.63,-33.35,-45.00,-50.12,-53.26
2022/05/26 04:31:12+0000,-32.18,-40.14,-32.42,-45.42,-50.62,-53.35
2022/05/26 04:32:04+0000,-33.65,-40.58,-33.04,-49.06,-50.47,-53.16
2022/05/26 04:32:56+0000,-31.49,-39.08,-33.35,-47.47,-51.07,-53.21
2022/05/26 04:33:48+0000,-33.31,-40.15,-32.86,-48.97,-50.46,-53.22
2022/05/26 04:34:40+0000,-33.15,-39.09,-33.16,-44.38,-50.95,-53.09
2022/05/26 04:35:32+0000,-31.39,-40.80,-33.22,-48.31,-50.88,-53.48
2022/05/26 04:36:24+0000,-31.73,-40.42,-32.67,-47.32,-50.46,-53.09
2022/05/26 04:37:16+0000,-33.14,-39.53,-33.64,-45.89,-50.67,-52.94
2022/05/26 04:38:08+0000,-31.98,-38.78,-33.68,-46.79,-50.91,-53.25
2022/05/26 04:39:00+0000,-32.11,-40.73,-33.44,-48.09,-50.85,-53.00
2022/05/26 04:39:53+0000,-33.00,-40.87,-33.15,-47.48,-50.66,-53.71
2022/05/26 04:40:45+0000,-33.18,-39.96,-32.67,-45.62,-50.52,-53.75
2022/05/26 04:41:45+0000,-33.16,-39.60,-33.72,-46.02,-50.68,-53.89
2022/05/26 04:42:37+0000,-30.76,-41.24,-32.81,-44.72,-51.07,-53.01
2022/05/26 04:43:29+0000,-32.86,-40.02,-33.76,-47.42,-51.50,-53.84
2022/05/26 04:44:21+0000,-31.58,-41.33,-32.86,-48.14,-51.07,-53.53
2022/05/26 04:45:13+0000,-33.71,-39.75,-32.82,-46.25,-50.47,-53.33